Weather History for Akron, OH

Change the Weather History Date:

Sunday, April 7, 2013

  Actual Average (KCAK) Record (KCAK)
Temperature  
Mean Temperature 58 °F 46 °F  
Max Temperature 73 °F 56 °F 82 °F (1929)
Min Temperature 45 °F 36 °F 16 °F (1972)
Degree Days  
Heating Degree Days 6 19  
Month to date heating degree days 141  
Since 1 July heating degree days 5536  
Cooling Degree Days 0 0  
Month to date cooling degree days 0  
Year to date cooling degree days 0  
Growing Degree Days 8 (Base 50)    
Moisture  
Dew Point 33 °F    
Average Humidity 40    
Maximum Humidity 71    
Minimum Humidity 20    
Precipitation  
Precipitation 0.00 in 0.12 in 0.63 in (2006)
Month to date precipitation 0.83  
Year to date precipitation 8.73  
Snow  
Snow 0.00 in 0.10 in - ()
Month to date snowfall 1.1  
Since 1 July snowfall 45.8  
Snow Depth -    
Sea Level Pressure  
Sea Level Pressure 29.88 in    
Wind  
Wind Speed 14 mph (SW)    
Max Wind Speed 26 mph    
Max Gust Speed 36 mph    
Visibility 10 miles    
Events      
T = Trace of Precipitation, MM = Missing Value Source: NWS Daily Summary

Daily Weather History Graph

Daily Weather History Graph

Search for Another Location

Airport:

Trip Planner

Search our weather history database for the weather conditions in past years. The results will help you decide how hot, cold, wet, or windy it might be!

Date:

Astronomy

Apr. 07, 2013 Rise Set
Actual Time 6:58 AM EDT 7:57 PM EDT
Civil Twilight 6:30 AM EDT 8:25 PM EDT
Nautical Twilight 5:57 AM EDT 8:59 PM EDT
Astronomical Twilight 5:22 AM EDT 9:33 PM EDT
Moon 5:17 AM EDT (4/7) 5:27 PM EDT (4/7)
Length of Visible Light 13h 54m
Length of Day
12h 58m
Waning Crescent, 8% of the Moon is Illuminated
Apr 7
Waning Crescent
Apr 10
New
Apr 18
First Quarter
Apr 25
Full
May 2
Last Quarter

Hourly Weather History & Observations

Time (EDT) Temp. Windchill Dew Point Humidity Pressure Visibility Wind Dir Wind Speed Gust Speed Precip Events Conditions
12:54 AM 53.1 °F - 12.0 °F 20% 29.92 in 10.0 mi South 8.1 mph - N/A   Clear
1:54 AM 53.1 °F - 12.0 °F 20% 29.88 in 10.0 mi South 10.4 mph - N/A   Clear
2:54 AM 54.0 °F - 17.1 °F 23% 29.87 in 10.0 mi South 16.1 mph - N/A   Clear
3:54 AM 55.9 °F - 24.1 °F 29% 29.84 in 10.0 mi South 16.1 mph 23.0 mph N/A   Clear
4:54 AM 57.9 °F - 28.0 °F 32% 29.82 in 10.0 mi SSW 15.0 mph - N/A   Scattered Clouds
5:54 AM 57.0 °F - 30.0 °F 36% 29.81 in 10.0 mi SSW 19.6 mph 27.6 mph N/A   Clear
6:54 AM 55.9 °F - 30.9 °F 39% 29.81 in 10.0 mi SSW 18.4 mph 26.5 mph N/A   Scattered Clouds
7:54 AM 57.9 °F - 33.1 °F 39% 29.82 in 10.0 mi SSW 19.6 mph 27.6 mph N/A   Mostly Cloudy
8:54 AM 60.1 °F - 35.1 °F 39% 29.82 in 10.0 mi SW 18.4 mph 28.8 mph N/A   Partly Cloudy
9:54 AM 62.1 °F - 37.0 °F 39% 29.81 in 10.0 mi SW 18.4 mph 27.6 mph N/A   Scattered Clouds
10:54 AM 64.0 °F - 39.9 °F 41% 29.83 in 10.0 mi SW 26.5 mph 35.7 mph N/A   Clear
11:54 AM 66.0 °F - 41.0 °F 40% 29.83 in 10.0 mi SW 24.2 mph 32.2 mph N/A   Clear
12:54 PM 69.1 °F - 39.0 °F 33% 29.83 in 10.0 mi WSW 19.6 mph 35.7 mph N/A   Clear
1:54 PM 71.1 °F - 39.9 °F 32% 29.83 in 10.0 mi WSW 19.6 mph 26.5 mph N/A   Partly Cloudy
2:54 PM 70.0 °F - 39.0 °F 32% 29.84 in 10.0 mi SW 16.1 mph 34.5 mph N/A   Mostly Cloudy
3:54 PM 70.0 °F - 39.0 °F 32% 29.85 in 10.0 mi West 24.2 mph 31.1 mph N/A   Scattered Clouds
4:54 PM 71.1 °F - 37.0 °F 29% 29.86 in 10.0 mi West 21.9 mph 27.6 mph N/A   Scattered Clouds
5:54 PM 63.0 °F - 43.0 °F 48% 29.90 in 10.0 mi NNE 12.7 mph 18.4 mph N/A   Clear
6:54 PM 59.0 °F - 41.0 °F 51% 29.93 in 10.0 mi North 11.5 mph - N/A   Clear
7:54 PM 54.0 °F - 39.0 °F 57% 29.96 in 10.0 mi North 6.9 mph - N/A   Clear
8:54 PM 51.1 °F - 37.0 °F 59% 29.99 in 10.0 mi NNE 8.1 mph - N/A   Clear
9:54 PM 48.9 °F - 36.0 °F 61% 30.01 in 10.0 mi NE 3.5 mph - N/A   Clear
10:54 PM 46.9 °F - 36.0 °F 66% 30.01 in 10.0 mi NNE 6.9 mph - N/A   Clear
11:54 PM 45.0 °F 43.5 °F 36.0 °F 71% 30.01 in 10.0 mi NE 3.5 mph - N/A   Clear